| time (UTC) | temp C | wind direction | speed KPH | gust KPH | rain 1hr cm | rain 24hr cm | rain mn cm | humidity % | barometer mb |
| 20260505004600 | 13 | 190 | 1.6 | 11.3 | 0.00 | 0.00 | 0.00 | 87 | 1012.9 |
| 20260505003050 | 13 | 243 | 0.0 | 4.8 | 0.00 | 0.00 | 0.00 | 87 | 1012.9 |
| 20260505001544 | 13 | 202 | 1.6 | 8.0 | 0.00 | 0.00 | 0.00 | 87 | 1012.9 |
| 20260505000045 | 14 | 234 | 0.0 | 6.4 | 0.00 | 0.00 | 0.00 | 86 | 1013.0 |
| 20260504234543 | 13 | 190 | 1.6 | 8.0 | 0.00 | 0.00 | 0.00 | 85 | 1013.1 |
| 20260504233046 | 13 | 169 | 1.6 | 6.4 | 0.00 | 0.00 | 0.00 | 86 | 1013.2 |
| 20260504231605 | 13 | 230 | 1.6 | 6.4 | 0.00 | 0.00 | 0.00 | 86 | 1013.2 |
| 20260504230042 | 13 | 229 | 1.6 | 8.0 | 0.00 | 0.00 | 0.00 | 87 | 1013.1 |
| 20260504224543 | 13 | 232 | 4.8 | 11.3 | 0.00 | 0.00 | 0.00 | 86 | 1013.2 |
| 20260504223045 | 13 | 184 | 1.6 | 11.3 | 0.00 | 0.00 | 0.00 | 87 | 1013.2 |
| 20260504221603 | 14 | 203 | 3.2 | 8.0 | 0.00 | 0.00 | 0.00 | 86 | 1013.3 |
| 20260504220040 | 13 | 177 | 3.2 | 9.7 | 0.00 | 0.00 | 0.00 | 86 | 1013.3 |
| 20260504214539 | 13 | 192 | 4.8 | 11.3 | 0.00 | 0.00 | 0.00 | 86 | 1013.3 |
| 20260504213043 | 13 | 175 | 4.8 | 11.3 | 0.00 | 0.00 | 0.00 | 87 | 1013.3 |
| 20260504211537 | 13 | 216 | 4.8 | 14.5 | 0.00 | 0.00 | 0.00 | 87 | 1013.3 |
| 20260504210045 | 13 | 229 | 4.8 | 11.3 | 0.00 | 0.00 | 0.00 | 87 | 1013.2 |
| 20260504204537 | 13 | 205 | 4.8 | 11.3 | 0.00 | 0.00 | 0.00 | 87 | 1013.3 |
| 20260504203035 | 13 | 174 | 4.8 | 12.9 | 0.00 | 0.00 | 0.00 | 87 | 1013.4 |
| 20260504201534 | 13 | 236 | 4.8 | 11.3 | 0.00 | 0.00 | 0.00 | 87 | 1013.4 |
| 20260504200034 | 13 | 190 | 4.8 | 12.9 | 0.00 | 0.00 | 0.00 | 87 | 1013.5 |
| 20260504194532 | 13 | 143 | 6.4 | 12.9 | 0.00 | 0.00 | 0.00 | 86 | 1013.4 |
| 20260504193032 | 13 | 174 | 4.8 | 9.7 | 0.00 | 0.00 | 0.00 | 87 | 1013.3 |
| 20260504191552 | 13 | 229 | 6.4 | 16.1 | 0.00 | 0.00 | 0.00 | 87 | 1013.4 |
| 20260504190029 | 13 | 186 | 6.4 | 16.1 | 0.00 | 0.00 | 0.00 | 88 | 1013.3 |
| 20260504184540 | 13 | 232 | 6.4 | 12.9 | 0.00 | 0.00 | 0.00 | 89 | 1013.3 |
| 20260504183026 | 13 | 188 | 6.4 | 19.3 | 0.00 | 0.00 | 0.00 | 89 | 1013.3 |
| 20260504181526 | 13 | 193 | 6.4 | 19.3 | 0.00 | 0.00 | 0.00 | 90 | 1013.3 |
| 20260504180032 | 12 | 165 | 8.0 | 19.3 | 0.00 | 0.00 | 0.00 | 90 | 1013.1 |
| 20260504174523 | 12 | 190 | 9.7 | 20.9 | 0.00 | 0.00 | 0.00 | 91 | 1013.0 |
| 20260504173023 | 12 | 139 | 11.3 | 20.9 | 0.00 | 0.00 | 0.00 | 91 | 1013.0 |
| 20260504171522 | 12 | 200 | 11.3 | 22.5 | 0.00 | 0.00 | 0.00 | 91 | 1013.0 |
| 20260504081526 | 11 | 10 | 0.0 | 0.0 | 0.00 | 0.03 | 0.00 | 87 | 1008.8 |
| 20260504050012 | 15 | 326 | 6.4 | 14.5 | 0.00 | 0.03 | 0.03 | 76 | 1008.6 |
| 20260504044510 | 15 | 326 | 6.4 | 16.1 | 0.00 | 0.03 | 0.03 | 79 | 1008.5 |
| 20260504043011 | 15 | 348 | 8.0 | 16.1 | 0.00 | 0.03 | 0.03 | 79 | 1008.4 |
| 20260504041509 | 15 | 335 | 9.7 | 16.1 | 0.00 | 0.03 | 0.03 | 79 | 1008.4 |
| 20260504040009 | 15 | 287 | 8.0 | 16.1 | 0.00 | 0.03 | 0.03 | 77 | 1008.4 |
| 20260504034508 | 15 | 326 | 6.4 | 14.5 | 0.00 | 0.03 | 0.03 | 75 | 1008.3 |
| 20260504033007 | 16 | 333 | 8.0 | 16.1 | 0.00 | 0.03 | 0.03 | 73 | 1008.3 |
| 20260504031507 | 16 | 328 | 8.0 | 17.7 | 0.00 | 0.03 | 0.03 | 71 | 1008.3 |
| 20260504030007 | 17 | 21 | 9.7 | 17.7 | 0.00 | 0.03 | 0.03 | 66 | 1008.3 |
| 20260504024509 | 17 | 328 | 8.0 | 16.1 | 0.00 | 0.03 | 0.03 | 65 | 1008.4 |
| 20260504023005 | 17 | 340 | 8.0 | 16.1 | 0.00 | 0.03 | 0.03 | 66 | 1008.3 |
| 20260504021505 | 18 | 336 | 6.4 | 19.3 | 0.00 | 0.03 | 0.03 | 64 | 1008.3 |
| 20260504020004 | 18 | 350 | 11.3 | 22.5 | 0.00 | 0.03 | 0.03 | 59 | 1008.3 |
| 20260504014502 | 19 | 303 | 9.7 | 19.3 | 0.00 | 0.03 | 0.03 | 58 | 1008.5 |
| 20260504013001 | 18 | 278 | 9.7 | 24.1 | 0.00 | 0.03 | 0.03 | 59 | 1008.6 |
| 20260504011559 | 19 | 322 | 11.3 | 20.9 | 0.00 | 0.03 | 0.03 | 57 | 1008.7 |
| 20260504010058 | 19 | 3 | 14.5 | 25.7 | 0.00 | 0.03 | 0.03 | 53 | 1008.9 |